Meteo Giornale » Osservazioni meteo Italia » Roma Fiumicino

ore: 00:50 - Osservazioni Meteo Roma Fiumicino
Lat. 41° 48' N Lon. 12° 14' E Alt. 2 metri s.l.m.

sereno Europe/Rome

12 °C

Sereno

Temp. 24 Ore

12 °C

22 °C

Nord

1.8 Km/h

Dew point 11 °C

Umidità 93 %

Visibilità  7 Km

Il sole sorge alle ore 07:29

Il sole tramonta alle ore 18:21

Data e Ora Cielo e Fenomeni T °C DP °C Um. % Pres. hPa Vis. km Vento km/h
Oggi h: 00:50 sereno Sereno 12 11 93 1021 7 N 1.8
Oggi h: 00:20 nebbia Banco di Nebbia 12 12 100 1021 7 N 5.5
Ieri h: 23:50 sereno Sereno 13 12 93 1021 9 N 3.7
Ieri h: 23:20 foschia Foschia 14 13 93 1021 5 N 3.7
Ieri h: 22:50 foschia Foschia 14 14 100 1021 5 N 5.5
Ieri h: 22:20 sereno Sereno 15 14 93 1021 8 N 5.5
Ieri h: 21:50 sereno Sereno 16 15 93 1021 10 N 5.5
Ieri h: 21:20 sereno Sereno 16 15 93 1020 10 N 3.7
Ieri h: 20:50 sereno Sereno 17 16 93 1020 10 N 3.7
Ieri h: 20:20 sereno Sereno 17 15 88 1020 10 N 3.7
Ieri h: 19:50 sereno Sereno 18 16 88 1020 10 O/NO 7.4
Ieri h: 19:20 sereno Sereno 18 16 88 1020 10 O/NO 7.4
Ieri h: 18:50 sereno Sereno 18 16 88 1020 10 N 5.5
Ieri h: 18:20 sereno Sereno 19 16 82 1019 10 O 11.1
Ieri h: 17:50 sereno Sereno 20 16 77 1019 10 O 11.1
Ieri h: 17:20 sereno Sereno 21 16 73 1019 10 O 11.1
Ieri h: 16:50 sereno Sereno 22 15 64 1019 10 O 9.3
Ieri h: 16:20 sereno Sereno 22 15 64 1019 10 O/SO 14.8
Ieri h: 15:50 sereno Sereno 22 14 60 1018 10 O/SO 14.8
Ieri h: 15:20 sereno Sereno 22 15 64 1018 10 O/SO 14.8
Ieri h: 14:50 sereno Sereno 22 15 64 1018 10 O 11.1
Ieri h: 14:20 sereno Sereno 22 15 64 1019 10 O 11.1
Ieri h: 13:50 sereno Sereno 22 15 64 1019 10 O/SO 9.3
Ieri h: 13:20 sereno Sereno 22 14 60 1019 10 O 7.4
Ieri h: 12:50 sereno Sereno 22 12 53 1019 10 N 5.5
Ieri h: 12:20 sereno Sereno 22 12 53 1019 10 S/SE 7.4
Ieri h: 11:50 sereno Sereno 21 14 64 1019 10 E/SE 7.4
Ieri h: 11:20 sereno Sereno 20 13 64 1020 10 E 9.3
Ieri h: 10:50 sereno Sereno 19 14 72 1020 10 E/NE 11.1
Ieri h: 10:20 sereno Sereno 18 13 72 1020 10 E/NE 9.3
Ieri h: 09:50 sereno Sereno 16 13 82 1020 9 NE 11.1
Ieri h: 09:20 sereno Sereno 15 13 87 1019 8 NE 7.4
Ieri h: 08:50 sereno Sereno 14 12 87 1019 8 E 7.4
Ieri h: 08:20 sereno Sereno 13 12 93 1019 8 E/NE 7.4
Ieri h: 07:50 sereno Sereno 12 11 93 1018 8 E 7.4
Ieri h: 07:20 sereno Sereno 12 12 100 1018 8 N 5.5
Ieri h: 06:50 sereno Sereno 12 12 100 1018 8 E/NE 9.3
Ieri h: 06:20 sereno Sereno 12 11 93 1018 8 N 5.5
Ieri h: 05:50 sereno Sereno 12 11 93 1018 8 N 3.7
Ieri h: 05:20 sereno Sereno 12 11 93 1018 8 E/NE 11.1
Ieri h: 04:50 sereno Sereno 12 11 93 1018 8 E 7.4
Ieri h: 04:20 sereno Sereno 12 11 93 1018 8 E 7.4
Ieri h: 03:50 sereno Sereno 12 12 100 1018 7 E 7.4
Ieri h: 03:20 sereno Sereno 12 11 93 1018 7 N 5.5
Ieri h: 02:50 sereno Sereno 12 12 100 1018 7 N 5.5
Ieri h: 02:20 sereno Sereno 13 12 93 1018 7 N 3.7
Ieri h: 01:50 sereno Sereno 13 12 93 1018 7 N 5.5